Tracking 27422 objects as of 30-May-2023
HD Live streaming from Space Station
objects crossing your sky now

COSMOS 1633

Track COSMOS 1633 now!
10-day predictions
COSMOS 1633 is classified as:


NORAD ID: 15592
Int'l Code: 1985-020A
Perigee: 420.2 km
Apogee: 430.3 km
Inclination: 82.5 °
Period: 92.9 minutes
Semi major axis: 6796 km
RCS: 7.2924 m2 (large)
Launch date: March 5, 1985
Source: Commonwealth of Independent States (former USSR) (CIS)
Launch site: PLESETSK MISSILE AND SPACE COMPLEX (PKMTR)
Your satellite tracking list
Your tracking list is empty




NASA's NSSDC Master Catalog

Two Line Element Set (TLE):
1 15592U 85020A   23150.43387450  .00018581  00000-0  33590-3 0  9998
2 15592  82.5300 287.8762 0007441   5.6311 354.5022 15.49526337 96881
Source of the keplerian elements: AFSPC